Weather History for KLHX - December, 2013

Change the Weather History Date:

Wednesday, December 4, 2013

  Actual Average Record
Temperature  
Mean Temperature 16 °F 33 °F  
Max Temperature 23 °F 46 °F 76 °F (1979)
Min Temperature 8 °F 19 °F 4 °F (1978)
Degree Days  
Heating Degree Days 49 32  
Month to date heating degree days 106 127  
Since 1 July heating degree days 1144 1272  
Cooling Degree Days 0 0  
Month to date cooling degree days 0 0  
Year to date cooling degree days 1663 1226  
Moisture  
Dew Point 4 °F    
Average Humidity 58    
Maximum Humidity 73    
Minimum Humidity 43    
Precipitation  
Precipitation T in 0.01 in 0.26 in (1969)
Month to date precipitation T 0.04  
Year to date precipitation 5.03 11.24  
Sea Level Pressure  
Sea Level Pressure 29.94 in    
Wind  
Wind Speed 14 mph (NNE)    
Max Wind Speed 25 mph    
Max Gust Speed 31 mph    
Visibility 10 miles    
Events      
T = Trace of Precipitation, MM = Missing Value Source: NWS Daily Summary

Daily Weather History Graph

Daily Weather History Graph

Search for Another Location

Airport or City:

Trip Planner

Search our weather history database for the weather conditions in past years. The results will help you decide how hot, cold, wet, or windy it might be!

Date:

Astronomy

Dec. 04, 2013 Rise Set
Actual Time 6:54 AM MST 4:34 PM MST
Civil Twilight 6:25 AM MST 5:03 PM MST
Nautical Twilight 5:52 AM MST 5:36 PM MST
Astronomical Twilight 5:20 AM MST 6:08 PM MST
Moon 8:25 AM MST (12/4) 6:46 PM MST (12/4)
Length of Visible Light 10h 38m
Length of Day
9h 39m
Waxing Crescent, 5% of the Moon is Illuminated
Dec 4
Waxing Crescent
Dec 9
First Quarter
Dec 17
Full
Dec 25
Last Quarter
Jan 1
New

Hourly Weather History & Observations

Time (MST) Temp. Windchill Dew Point Humidity Pressure Visibility Wind Dir Wind Speed Gust Speed Precip Events Conditions
12:53 AM 21.9 °F 9.8 °F 12.0 °F 66% 29.70 in 10.0 mi NNE 12.7 mph - N/A   Overcast
1:53 AM 21.0 °F 8.1 °F 12.0 °F 68% 29.70 in 10.0 mi NNE 13.8 mph - N/A   Overcast
2:53 AM 21.0 °F 8.6 °F 12.0 °F 68% 29.70 in 10.0 mi North 12.7 mph - N/A   Overcast
3:53 AM 19.9 °F 8.6 °F 12.0 °F 71% 29.69 in 10.0 mi NE 10.4 mph - N/A   Overcast
4:53 AM 19.9 °F 7.3 °F 10.9 °F 68% 29.69 in 10.0 mi NNE 12.7 mph - N/A   Overcast
5:53 AM 19.0 °F 5.6 °F 10.0 °F 68% 29.76 in 10.0 mi NNE 13.8 mph - N/A   Overcast
6:53 AM 18.0 °F 4.8 °F 9.0 °F 68% 29.81 in 10.0 mi NNE 12.7 mph - N/A   Overcast
7:53 AM 18.0 °F 4.2 °F 6.1 °F 60% 29.84 in 10.0 mi NNE 13.8 mph - N/A   Overcast
8:53 AM 17.1 °F 2.0 °F 5.0 °F 59% 29.88 in 10.0 mi NNE 16.1 mph - N/A   Unknown
9:46 AM 17.6 °F 2.7 °F 6.8 °F 63% 29.81 in 10.0 mi North 16.1 mph - N/A   Overcast
9:53 AM 18.0 °F 3.1 °F 6.1 °F 60% 29.90 in 10.0 mi NNE 16.1 mph - N/A   Overcast
10:11 AM 17.6 °F 3.7 °F 3.2 °F 53% 29.80 in 10.0 mi NNE 13.8 mph - N/A   Overcast
10:53 AM 18.0 °F 3.6 °F 3.0 °F 52% 29.91 in 10.0 mi NNE 15.0 mph - N/A   Overcast
11:53 AM 19.0 °F 3.6 °F 1.9 °F 47% 29.90 in 10.0 mi North 18.4 mph 25.3 mph N/A   Overcast
12:53 PM 19.0 °F 5.6 °F 1.0 °F 46% 29.91 in 10.0 mi North 13.8 mph - N/A   Overcast
1:53 PM 19.9 °F 4.8 °F -0.9 °F 40% 29.92 in 10.0 mi North 18.4 mph - N/A   Overcast
2:53 PM 19.0 °F 3.6 °F -0.0 °F 43% 29.94 in 10.0 mi North 18.4 mph - N/A   Overcast
3:53 PM 17.1 °F 0.1 °F -0.0 °F 47% 30.01 in 10.0 mi North 20.7 mph - N/A   Overcast
4:53 PM 14.0 °F -3.9 °F 1.0 °F 56% 30.06 in 10.0 mi North 20.7 mph - 0.00 in   Overcast
5:53 PM 12.9 °F -4.4 °F 1.9 °F 62% 30.12 in 6.0 mi North 18.4 mph - 0.00 in   Haze
6:53 PM 12.9 °F -2.8 °F 1.0 °F 59% 30.14 in 10.0 mi North 15.0 mph - N/A   Scattered Clouds
7:53 PM 12.9 °F -1.6 °F -0.0 °F 56% 30.18 in 10.0 mi North 12.7 mph - N/A   Overcast
8:53 PM 12.9 °F -0.2 °F -0.0 °F 56% 30.22 in 10.0 mi North 10.4 mph - N/A   Overcast
9:53 PM 12.0 °F -3.4 °F -0.0 °F 59% 30.23 in 10.0 mi North 13.8 mph - N/A   Overcast
10:53 PM 10.0 °F -1.9 °F -2.0 °F 58% 30.28 in 10.0 mi North 8.1 mph - N/A   Scattered Clouds
11:53 PM 8.1 °F -3.2 °F -2.0 °F 64% 30.28 in 10.0 mi NNE 6.9 mph - N/A   Partly Cloudy